DateTimeUTC,F1_A11,F1_S11,BsB_S11,BsG_S11,BsR_S11,BbsB_S11,BbsG_S11,BbsR_S11,BaB_A11,BaG_A11,BaR_A11,Tu_S11,T_S11,Uu_S11,U_S11,P_S11,T1_A11
2021-06-22T05:00:00Z,00000200,20000000,,,,,,,-000.37,0000.04,0000.27,17.7,24.8,01.7,01.1,0669.2,31.1
2021-06-22T05:01:00Z,00000200,20000000,,,,,,,0000.71,0000.42,0000.09,17.7,24.8,01.7,01.1,0669.2,31.0
2021-06-22T05:02:00Z,00000200,20000000,,,,,,,-000.28,0000.40,-000.22,17.7,24.8,01.7,01.1,0669.2,31.0
2021-06-22T05:03:00Z,00000200,60000000,,,,,,,0000.92,0000.41,0000.64,17.8,24.8,01.7,01.1,0669.2,31.1
2021-06-22T05:04:00Z,00000200,41000000,0000.54,0000.67,0000.39,-000.00,0000.16,0000.05,0000.23,-000.06,0000.35,18.1,24.7,01.8,01.2,0670.2,31.1
2021-06-22T05:05:00Z,00000200,00000000,0000.82,0000.51,0000.30,0000.11,0000.12,0000.47,0000.75,0000.91,0000.38,18.2,24.7,02.0,01.3,0670.3,31.1
2021-06-22T05:06:00Z,00000200,01000000,0000.76,0000.68,0000.76,0000.31,-000.14,0000.52,0000.53,0000.28,0000.47,18.2,24.7,01.9,01.3,0670.2,31.0
2021-06-22T05:07:00Z,00000200,01000000,0000.49,0000.45,0000.32,0000.42,0000.09,-000.16,0000.58,0000.71,0000.25,18.1,24.6,01.9,01.2,0670.2,31.0
2021-06-22T05:08:00Z,00000200,01000000,0000.52,0000.81,0000.52,0000.26,-000.11,0000.31,0000.40,0000.33,0000.37,18.1,24.6,01.9,01.3,0670.2,31.0
2021-06-22T05:09:00Z,00000200,01000000,0000.60,0000.85,0000.12,0000.22,0000.01,0000.11,0001.05,0000.96,0000.84,18.0,24.6,01.9,01.3,0670.3,31.0
2021-06-22T05:10:00Z,00000200,00000000,0000.32,0000.52,0000.17,0000.50,0000.15,-000.05,0001.34,0000.99,0000.84,18.0,24.5,01.9,01.3,0670.2,31.0
2021-06-22T05:11:00Z,00000200,00000000,0001.13,0000.77,0000.40,-000.11,0000.28,0000.05,0004.18,0003.82,0003.17,17.9,24.5,01.9,01.3,0670.2,31.0
2021-06-22T05:12:00Z,00000200,01000000,0001.40,0000.74,0000.36,0000.26,-000.04,-000.01,0003.75,0003.54,0002.55,17.9,24.5,02.0,01.3,0670.2,31.0
2021-06-22T05:13:00Z,00000200,00000000,0000.43,0000.78,0000.22,0000.67,0000.04,-000.12,0003.05,0002.62,0002.08,17.9,24.5,01.9,01.3,0670.2,31.0
2021-06-22T05:14:00Z,00000200,01000000,0001.17,0000.48,0000.28,0000.38,0000.20,-000.15,0001.03,0001.32,0000.77,17.9,24.4,02.0,01.3,0670.2,31.0
2021-06-22T05:15:00Z,00000200,01000000,0001.16,0000.54,0000.19,-000.35,0000.25,0000.36,0001.49,0001.20,0001.23,17.9,24.5,01.9,01.3,0670.3,31.0
2021-06-22T05:16:00Z,00000200,01000000,0000.89,0000.68,0000.35,-000.01,0000.10,0000.16,0000.55,0000.43,0000.49,18.0,24.5,01.8,01.2,0670.3,31.0
2021-06-22T05:17:00Z,00000200,01000000,0001.52,0000.61,0000.00,0000.16,0000.18,0000.15,0000.64,0001.15,0000.64,18.1,24.5,01.9,01.3,0670.3,31.1
2021-06-22T05:18:00Z,00000200,01000000,0000.87,0000.64,0000.32,0000.29,-000.30,0000.44,0001.09,0000.80,0000.54,18.2,24.5,01.8,01.2,0670.4,31.1
2021-06-22T05:19:00Z,00000200,01000000,0001.02,0000.75,0000.44,0000.27,-000.07,0000.21,0000.84,0000.64,0000.55,18.2,24.6,01.8,01.3,0670.4,31.1
2021-06-22T05:20:00Z,00000200,01000000,0000.60,0000.47,0000.39,0000.57,0000.10,0000.22,0000.36,0000.42,0000.39,18.3,24.6,01.7,01.2,0670.4,31.1
2021-06-22T05:21:00Z,00000200,00000000,0001.22,0000.52,0000.46,0000.18,-000.27,0000.38,0000.45,0000.34,0000.18,18.3,24.7,01.8,01.2,0670.4,31.1
2021-06-22T05:22:00Z,00000200,00000000,0000.65,0000.43,0000.22,-000.06,0000.20,0000.08,0000.49,0001.09,0000.70,18.3,24.6,01.8,01.2,0670.4,31.1
2021-06-22T05:23:00Z,00000200,01000000,0000.98,0000.47,0000.70,-000.11,0000.22,0000.35,0001.04,0000.65,0000.78,18.2,24.6,01.9,01.3,0670.4,31.1
2021-06-22T05:24:00Z,00000200,01000000,0000.97,0000.57,0000.60,0000.15,0000.15,-000.01,0001.25,0000.70,0000.25,18.2,24.6,01.9,01.3,0670.4,31.0
2021-06-22T05:25:00Z,00000200,01000000,0000.32,0000.37,0000.47,0000.34,0000.15,0000.21,0003.06,0002.44,0002.50,18.1,24.6,01.8,01.2,0670.4,31.0
2021-06-22T05:26:00Z,00000200,01000000,0001.28,0000.66,0000.40,0000.42,0000.04,0000.37,0004.93,0004.69,0003.47,18.0,24.5,01.8,01.2,0670.4,31.0
2021-06-22T05:27:00Z,00000200,01000000,0001.47,0000.83,0000.47,0000.52,-000.02,0000.00,0005.56,0004.92,0003.77,18.0,24.5,01.8,01.2,0670.4,31.0
2021-06-22T05:28:00Z,00000200,01000000,0001.35,0000.61,0000.54,0000.43,0000.18,0000.10,0006.67,0006.27,0005.03,18.0,24.4,01.9,01.3,0670.3,31.0
2021-06-22T05:29:00Z,00000200,01000000,0001.11,0001.02,0000.63,0000.49,-000.04,0000.14,0008.78,0008.35,0006.47,18.0,24.4,01.9,01.3,0670.3,31.0
2021-06-22T05:30:00Z,00000200,00000000,0002.08,0001.14,0000.51,0000.82,0000.07,0000.18,0010.79,0009.83,0007.65,18.0,24.5,02.0,01.3,0670.4,31.0
2021-06-22T05:31:00Z,00000200,00000000,0001.94,0000.94,0000.67,0000.57,0000.12,0000.47,0014.98,0013.42,0010.68,18.1,24.5,02.0,01.3,0670.4,31.0
2021-06-22T05:32:00Z,00000200,01000000,0000.91,0000.91,0000.73,0000.37,0000.04,0000.08,0014.75,0013.92,0010.92,18.2,24.5,01.9,01.3,0670.4,31.1
2021-06-22T05:33:00Z,00000200,01000000,0002.08,0001.65,0000.68,0000.68,0000.53,0000.44,0022.60,0020.44,0016.22,18.2,24.6,01.9,01.3,0670.5,31.1
2021-06-22T05:34:00Z,00000200,01000000,0001.41,0001.31,0001.15,0000.40,-000.11,0000.44,0022.70,0020.53,0016.52,18.3,24.6,01.8,01.2,0670.5,31.1
2021-06-22T05:35:00Z,00000200,01000000,0001.16,0001.13,0000.70,-000.10,0000.28,0000.35,0016.18,0014.77,0011.29,18.3,24.6,01.8,01.2,0670.5,31.1
2021-06-22T05:36:00Z,00000200,01000000,0001.16,0001.26,0000.71,0000.67,0000.25,0000.22,0020.26,0018.56,0014.67,18.3,24.6,01.8,01.2,0670.5,31.1
2021-06-22T05:37:00Z,00000200,01000000,0001.44,0001.06,0000.60,-000.11,0000.28,0000.03,0018.64,0016.65,0013.33,18.2,24.6,01.8,01.2,0670.4,31.1
2021-06-22T05:38:00Z,00000200,01000000,0001.56,0001.00,0000.63,-000.39,0000.11,0000.43,0016.56,0015.57,0011.69,18.2,24.6,01.8,01.2,0670.4,31.0
2021-06-22T05:39:00Z,00000200,01000000,0001.35,0001.05,0000.42,0000.55,0000.13,-000.05,0015.42,0013.96,0011.40,18.1,24.6,01.8,01.2,0670.4,31.0
2021-06-22T05:40:00Z,00000200,00000000,0001.12,0000.86,0000.58,0000.57,0000.26,0000.42,0010.68,0009.83,0007.65,18.1,24.5,01.9,01.3,0670.4,31.0
2021-06-22T05:41:00Z,00000200,01000000,0000.83,0000.72,0000.19,-000.19,0000.22,0000.55,0004.60,0004.08,0003.19,18.0,24.5,01.9,01.3,0670.4,31.0
2021-06-22T05:42:00Z,00000200,01000000,0001.41,0000.82,0000.87,0000.60,0000.05,0000.10,0005.10,0004.73,0003.58,17.9,24.5,01.9,01.3,0670.4,31.0
2021-06-22T05:43:00Z,00000200,00000000,0000.64,0000.61,0000.38,0000.39,0000.07,0000.26,0007.27,0006.49,0005.28,17.9,24.4,01.9,01.3,0670.3,31.0
2021-06-22T05:44:00Z,00000200,00000000,0001.45,0001.06,0000.55,0000.74,0000.19,0000.10,0008.61,0008.25,0006.47,17.9,24.4,02.0,01.4,0670.4,31.0
2021-06-22T05:45:00Z,00040200,00000000,0001.71,0001.02,0000.68,0000.50,0000.05,0000.23,0014.62,0013.21,0010.51,18.0,24.4,02.0,01.4,0670.4,31.0
2021-06-22T05:46:00Z,00040200,00000000,0002.04,0001.02,0000.50,0000.35,0000.14,0000.26,0011.25,0010.62,0008.26,18.0,24.5,02.0,01.4,0670.4,31.0
2021-06-22T05:47:00Z,00040200,00000000,0001.12,0000.56,0000.54,-000.03,0000.09,0000.11,0005.26,0004.50,0003.60,18.1,24.5,02.1,01.4,0670.4,31.0
2021-06-22T05:48:00Z,00040200,00000000,0000.38,0000.65,0000.24,0000.26,-000.08,-000.04,0004.09,0003.82,0002.89,18.2,24.5,02.1,01.4,0670.4,31.1
2021-06-22T05:49:00Z,00040200,00000000,0000.74,0000.65,0000.39,-000.15,0000.03,0000.19,0004.69,0003.91,0003.27,18.3,24.6,02.1,01.4,0670.4,31.1
2021-06-22T05:50:00Z,00040200,00000000,0000.74,0001.06,0000.13,-000.04,0000.18,0000.01,0002.94,0002.92,0002.40,18.3,24.6,02.1,01.4,0670.4,31.1
2021-06-22T05:51:00Z,00040200,00000000,0000.58,0000.46,0000.52,0000.62,0000.39,0000.36,0002.07,0002.13,0001.50,18.3,24.6,02.0,01.4,0670.5,31.1
2021-06-22T05:52:00Z,00040200,00000000,0000.72,0000.86,0000.35,0000.40,0000.07,-000.10,0002.81,0002.71,0001.97,18.3,24.7,02.1,01.4,0670.5,31.1
2021-06-22T05:53:00Z,00040200,00000000,0001.14,0000.35,0000.36,0000.22,0000.03,0000.17,0002.98,0002.23,0002.05,18.3,24.6,01.9,01.3,0670.5,31.0
2021-06-22T05:54:00Z,00040200,01000000,0001.28,0000.58,0000.31,0000.31,0000.11,0000.26,0001.99,0001.92,0001.34,18.2,24.6,01.9,01.3,0670.5,31.1
2021-06-22T05:55:00Z,00040200,00000000,0001.03,0000.63,0000.52,0000.61,0000.07,-000.01,0001.93,0001.65,0001.38,18.1,24.6,02.0,01.4,0670.5,31.1
2021-06-22T05:56:00Z,00040200,00000000,0001.55,0000.63,0000.32,0000.61,0000.06,-000.13,0002.86,0002.45,0001.72,18.1,24.5,02.0,01.4,0670.5,31.1
2021-06-22T05:57:00Z,00040200,40000000,,,,,,,0001.19,0001.46,0001.09,18.1,24.6,01.6,01.1,0670.5,31.0
2021-06-22T05:58:00Z,00040200,60000000,,,,,,,0000.35,0000.26,0000.41,17.8,24.6,01.8,01.2,0669.4,31.0
2021-06-22T05:59:00Z,00040200,20000000,,,,,,,0000.36,0000.12,0000.05,17.8,24.7,01.7,01.1,0669.5,31.0
